Year,Month,Day,Hour,Minute,Value (Times are PST for temperature in C)
2017,01,12,00,00,-0.50
2017,01,12,00,01,-0.60
2017,01,12,00,02,-0.70
2017,01,12,00,03,-0.70
2017,01,12,00,04,-0.80
2017,01,12,00,05,-0.80
2017,01,12,00,06,-0.80
2017,01,12,00,07,-0.90
2017,01,12,00,08,-0.90
2017,01,12,00,09,-1.00
2017,01,12,00,10,-1.00
2017,01,12,00,11,-1.10
2017,01,12,00,12,-1.10
2017,01,12,00,13,-1.10
2017,01,12,00,14,-1.20
2017,01,12,00,15,-1.20
2017,01,12,00,16,-1.20
2017,01,12,00,17,-1.30
2017,01,12,00,18,-1.30
2017,01,12,00,19,-1.30
2017,01,12,00,20,-1.40
2017,01,12,00,21,-1.40
2017,01,12,00,22,-1.50
2017,01,12,00,23,-1.50
2017,01,12,00,24,-1.60
2017,01,12,00,25,-1.60
2017,01,12,00,26,-1.60
2017,01,12,00,27,-1.70
2017,01,12,00,28,-1.70
2017,01,12,00,29,-1.70
2017,01,12,00,30,-1.70
2017,01,12,00,31,-1.80
2017,01,12,00,32,-1.80
2017,01,12,00,33,-1.80
2017,01,12,00,34,-1.80
2017,01,12,00,35,-1.80
2017,01,12,00,36,-1.90
2017,01,12,00,37,-1.90
2017,01,12,00,38,-1.90
2017,01,12,00,39,-1.90
2017,01,12,00,40,-1.90
2017,01,12,00,41,-1.90
2017,01,12,00,42,-2.00
2017,01,12,00,43,-2.00
2017,01,12,00,44,-2.00
2017,01,12,00,45,-2.10
2017,01,12,00,46,-2.10
2017,01,12,00,47,-2.10
2017,01,12,00,48,-2.10
2017,01,12,00,49,-2.20
2017,01,12,00,50,-2.20
2017,01,12,00,51,-2.20
2017,01,12,00,52,-2.20
2017,01,12,00,53,-2.30
2017,01,12,00,54,-2.30
2017,01,12,00,55,-2.30
2017,01,12,00,56,-2.30
2017,01,12,00,57,-2.40
2017,01,12,00,58,-2.40
2017,01,12,00,59,-2.40
2017,01,12,01,00,-2.40
2017,01,12,01,01,-2.40
2017,01,12,01,02,-2.40
2017,01,12,01,03,-2.50
2017,01,12,01,04,-2.50
2017,01,12,01,05,-2.50
2017,01,12,01,06,-2.50
2017,01,12,01,07,-2.50
2017,01,12,01,08,-2.50
2017,01,12,01,09,-2.50
2017,01,12,01,10,-2.50
2017,01,12,01,11,-2.50
2017,01,12,01,12,-2.50
2017,01,12,01,13,-2.50
2017,01,12,01,14,-2.50
2017,01,12,01,15,-2.50
2017,01,12,01,16,-2.50
2017,01,12,01,17,-2.50
2017,01,12,01,18,-2.60
2017,01,12,01,19,-2.60
2017,01,12,01,20,-2.70
2017,01,12,01,21,-2.70
2017,01,12,01,22,-2.70
2017,01,12,01,23,-2.80
2017,01,12,01,24,-2.80
2017,01,12,01,25,-2.80
2017,01,12,01,26,-2.80
2017,01,12,01,27,-2.90
2017,01,12,01,28,-2.90
2017,01,12,01,29,-2.90
2017,01,12,01,30,-3.00
2017,01,12,01,31,-3.00
2017,01,12,01,32,-3.10
2017,01,12,01,33,-3.10
2017,01,12,01,34,-3.10
2017,01,12,01,35,-3.20
2017,01,12,01,36,-3.20
2017,01,12,01,37,-3.20
2017,01,12,01,38,-3.20
2017,01,12,01,39,-3.30
2017,01,12,01,40,-3.30
2017,01,12,01,41,-3.30
2017,01,12,01,42,-3.30
2017,01,12,01,43,-3.30
2017,01,12,01,44,-3.30
2017,01,12,01,45,-3.30
2017,01,12,01,46,-3.30
2017,01,12,01,47,-3.30
2017,01,12,01,48,-3.30
2017,01,12,01,49,-3.30
2017,01,12,01,50,-3.30
2017,01,12,01,51,-3.30
2017,01,12,01,52,-3.30
2017,01,12,01,53,-3.30
2017,01,12,01,54,-3.30
2017,01,12,01,55,-3.40
2017,01,12,01,56,-3.40
2017,01,12,01,57,-3.40
2017,01,12,01,58,-3.40
2017,01,12,01,59,-3.50
2017,01,12,02,00,-3.50
2017,01,12,02,01,-3.50
2017,01,12,02,02,-3.60
2017,01,12,02,03,-3.60
2017,01,12,02,04,-3.60
2017,01,12,02,05,-3.60
2017,01,12,02,06,-3.60
2017,01,12,02,07,-3.60
2017,01,12,02,08,-3.70
2017,01,12,02,09,-3.70
2017,01,12,02,10,-3.70
2017,01,12,02,11,-3.70
2017,01,12,02,12,-3.70
2017,01,12,02,13,-3.70
2017,01,12,02,14,-3.80
2017,01,12,02,15,-3.80
2017,01,12,02,16,-3.80
2017,01,12,02,17,-3.80
2017,01,12,02,18,-3.80
2017,01,12,02,19,-3.80
2017,01,12,02,20,-3.80
2017,01,12,02,21,-3.80
2017,01,12,02,22,-3.80
2017,01,12,02,23,-3.80
2017,01,12,02,24,-3.70
2017,01,12,02,25,-3.70
2017,01,12,02,26,-3.70
2017,01,12,02,27,-3.70
2017,01,12,02,28,-3.70
2017,01,12,02,29,-3.70
2017,01,12,02,30,-3.70
2017,01,12,02,31,-3.70
2017,01,12,02,32,-3.70
2017,01,12,02,33,-3.80
2017,01,12,02,34,-3.70
2017,01,12,02,35,-3.80
2017,01,12,02,36,-3.80
2017,01,12,02,37,-3.80
2017,01,12,02,38,-3.70
2017,01,12,02,39,-3.70
2017,01,12,02,40,-3.70
2017,01,12,02,41,-3.70
2017,01,12,02,42,-3.70
2017,01,12,02,43,-3.80
2017,01,12,02,44,-3.80
2017,01,12,02,45,-3.80
2017,01,12,02,46,-3.80
2017,01,12,02,47,-3.90
2017,01,12,02,48,-3.90
2017,01,12,02,49,-3.90
2017,01,12,02,50,-4.00
2017,01,12,02,51,-4.00
2017,01,12,02,52,-4.00
2017,01,12,02,53,-4.10
2017,01,12,02,54,-4.10
2017,01,12,02,55,-4.10
2017,01,12,02,56,-4.10
2017,01,12,02,57,-4.20
2017,01,12,02,58,-4.20
2017,01,12,02,59,-4.20
2017,01,12,03,00,-4.20
2017,01,12,03,01,-4.20
2017,01,12,03,02,-4.20
2017,01,12,03,03,-4.30
2017,01,12,03,04,-4.30
2017,01,12,03,05,-4.30
2017,01,12,03,06,-4.30
2017,01,12,03,07,-4.30
2017,01,12,03,08,-4.20
2017,01,12,03,09,-4.20
2017,01,12,03,10,-4.20
2017,01,12,03,11,-4.20
2017,01,12,03,12,-4.20
2017,01,12,03,13,-4.20
2017,01,12,03,14,-4.10
2017,01,12,03,15,-4.00
2017,01,12,03,16,-4.00
2017,01,12,03,17,-3.90
2017,01,12,03,18,-3.90
2017,01,12,03,19,-3.80
2017,01,12,03,20,-3.80
2017,01,12,03,21,-3.80
2017,01,12,03,22,-3.80
2017,01,12,03,23,-3.80
2017,01,12,03,24,-3.70
2017,01,12,03,25,-3.80
2017,01,12,03,26,-3.80
2017,01,12,03,27,-3.80
2017,01,12,03,28,-3.80
2017,01,12,03,29,-3.80
2017,01,12,03,30,-3.80
2017,01,12,03,31,-3.80
2017,01,12,03,32,-3.80
2017,01,12,03,33,-3.90
2017,01,12,03,34,-3.90
2017,01,12,03,35,-3.90
2017,01,12,03,36,-3.90
2017,01,12,03,37,-3.90
2017,01,12,03,38,-3.90
2017,01,12,03,39,-4.00
2017,01,12,03,40,-4.00
2017,01,12,03,41,-4.00
2017,01,12,03,42,-4.00
2017,01,12,03,43,-4.10
2017,01,12,03,44,-4.10
2017,01,12,03,45,-4.10
2017,01,12,03,46,-4.20
2017,01,12,03,47,-4.20
2017,01,12,03,48,-4.30
2017,01,12,03,49,-4.30
2017,01,12,03,50,-4.40
2017,01,12,03,51,-4.40
2017,01,12,03,52,-4.40
2017,01,12,03,53,-4.50
2017,01,12,03,54,-4.50
2017,01,12,03,55,-4.50
2017,01,12,03,56,-4.50
2017,01,12,03,57,-4.50
2017,01,12,03,58,-4.50
2017,01,12,03,59,-4.50
2017,01,12,04,00,-4.50
2017,01,12,04,01,-4.60
2017,01,12,04,02,-4.60
2017,01,12,04,03,-4.60
2017,01,12,04,04,-4.50
2017,01,12,04,05,-4.50
2017,01,12,04,06,-4.50
2017,01,12,04,07,-4.50
2017,01,12,04,08,-4.50
2017,01,12,04,09,-4.50
2017,01,12,04,10,-4.50
2017,01,12,04,11,-4.40
2017,01,12,04,12,-4.40
2017,01,12,04,13,-4.40
2017,01,12,04,14,-4.50
2017,01,12,04,15,-4.50
2017,01,12,04,16,-4.50
2017,01,12,04,17,-4.40
2017,01,12,04,18,-4.40
2017,01,12,04,19,-4.40
2017,01,12,04,20,-4.40
2017,01,12,04,21,-4.50
2017,01,12,04,22,-4.50
2017,01,12,04,23,-4.50
2017,01,12,04,24,-4.50
2017,01,12,04,25,-4.50
2017,01,12,04,26,-4.50
2017,01,12,04,27,-4.50
2017,01,12,04,28,-4.50
2017,01,12,04,29,-4.50
2017,01,12,04,30,-4.50
2017,01,12,04,31,-4.50
2017,01,12,04,32,-4.50
2017,01,12,04,33,-4.50
2017,01,12,04,34,-4.50
2017,01,12,04,35,-4.60
2017,01,12,04,36,-4.60
2017,01,12,04,37,-4.70
2017,01,12,04,38,-4.70
2017,01,12,04,39,-4.70
2017,01,12,04,40,-4.70
2017,01,12,04,41,-4.70
2017,01,12,04,42,-4.70
2017,01,12,04,43,-4.80
2017,01,12,04,44,-4.80
2017,01,12,04,45,-4.80
2017,01,12,04,46,-4.80
2017,01,12,04,47,-4.80
2017,01,12,04,48,-4.80
2017,01,12,04,49,-4.80
2017,01,12,04,50,-4.80
2017,01,12,04,51,-4.80
2017,01,12,04,52,-4.90
2017,01,12,04,53,-4.90
2017,01,12,04,54,-4.90
2017,01,12,04,55,-4.90
2017,01,12,04,56,-5.00
2017,01,12,04,57,-5.00
2017,01,12,04,58,-5.00
2017,01,12,04,59,-5.00
2017,01,12,05,00,-5.00
2017,01,12,05,01,-5.00
2017,01,12,05,02,-5.00
2017,01,12,05,03,-5.00
2017,01,12,05,04,-5.00
2017,01,12,05,05,-5.00
2017,01,12,05,06,-5.10
2017,01,12,05,07,-5.10
2017,01,12,05,08,-5.10
2017,01,12,05,09,-5.10
2017,01,12,05,10,-5.10
2017,01,12,05,11,-5.10
2017,01,12,05,12,-5.20
2017,01,12,05,13,-5.20
2017,01,12,05,14,-5.20
2017,01,12,05,15,-5.20
2017,01,12,05,16,-5.20
2017,01,12,05,17,-5.20
2017,01,12,05,18,-5.20
2017,01,12,05,19,-5.20
2017,01,12,05,20,-5.20
2017,01,12,05,21,-5.20
2017,01,12,05,22,-5.30
2017,01,12,05,23,-5.30
2017,01,12,05,24,-5.30
2017,01,12,05,25,-5.30
2017,01,12,05,26,-5.30
2017,01,12,05,27,-5.30
2017,01,12,05,28,-5.40
2017,01,12,05,29,-5.40
2017,01,12,05,30,-5.40
2017,01,12,05,31,-5.40
2017,01,12,05,32,-5.40
2017,01,12,05,33,-5.40
2017,01,12,05,34,-5.40
2017,01,12,05,35,-5.50
2017,01,12,05,36,-5.50
2017,01,12,05,37,-5.50
2017,01,12,05,38,-5.50
2017,01,12,05,39,-5.50
2017,01,12,05,40,-5.50
2017,01,12,05,41,-5.50
2017,01,12,05,42,-5.50
2017,01,12,05,43,-5.50
2017,01,12,05,44,-5.50
2017,01,12,05,45,-5.50
2017,01,12,05,46,-5.50
2017,01,12,05,47,-5.60
2017,01,12,05,48,-5.60
2017,01,12,05,49,-5.60
2017,01,12,05,50,-5.60
2017,01,12,05,51,-5.60
2017,01,12,05,52,-5.60
2017,01,12,05,53,-5.60
2017,01,12,05,54,-5.60
2017,01,12,05,55,-5.60
2017,01,12,05,56,-5.70
2017,01,12,05,57,-5.70
2017,01,12,05,58,-5.70
2017,01,12,05,59,-5.70
2017,01,12,06,00,-5.70
2017,01,12,06,01,-5.80
2017,01,12,06,02,-5.80
2017,01,12,06,03,-5.80
2017,01,12,06,04,-5.80
2017,01,12,06,05,-5.90
2017,01,12,06,06,-5.90
2017,01,12,06,07,-5.90
2017,01,12,06,08,-5.90
2017,01,12,06,09,-5.90
2017,01,12,06,10,-5.90
2017,01,12,06,11,-5.90
2017,01,12,06,12,-5.90
2017,01,12,06,13,-5.90
2017,01,12,06,14,-5.90
2017,01,12,06,15,-5.90
2017,01,12,06,16,-5.90
2017,01,12,06,17,-5.90
2017,01,12,06,18,-5.90
2017,01,12,06,19,-5.90
2017,01,12,06,20,-5.90
2017,01,12,06,21,-5.90
2017,01,12,06,22,-5.90
2017,01,12,06,23,-5.90
2017,01,12,06,24,-5.90
2017,01,12,08,22,-6.50
2017,01,12,08,23,-6.50
2017,01,12,08,24,-6.50
2017,01,12,08,25,-6.50
2017,01,12,08,26,-6.60
2017,01,12,08,27,-6.50
2017,01,12,08,28,-6.50
2017,01,12,08,29,-6.50
2017,01,12,08,30,-6.50
2017,01,12,08,31,-6.40
2017,01,12,08,32,-6.30
2017,01,12,08,33,-6.30
2017,01,12,08,34,-6.20
2017,01,12,08,35,-6.10
2017,01,12,08,36,-5.90
2017,01,12,08,37,-5.80
2017,01,12,08,38,-5.70
2017,01,12,08,39,-5.70
2017,01,12,08,40,-5.60
2017,01,12,08,41,-5.60
2017,01,12,08,42,-5.60
2017,01,12,08,43,-5.50
2017,01,12,08,44,-5.50
2017,01,12,08,45,-5.40
2017,01,12,08,46,-5.40
2017,01,12,08,47,-5.30
2017,01,12,08,48,-5.30
2017,01,12,08,49,-5.20
2017,01,12,08,50,-5.20
2017,01,12,08,51,-5.10
2017,01,12,08,52,-5.00
2017,01,12,08,53,-4.90
2017,01,12,08,54,-4.70
2017,01,12,08,55,-4.50
2017,01,12,08,56,-4.30
2017,01,12,08,57,-4.00
2017,01,12,08,58,-3.90
2017,01,12,08,59,-3.80
2017,01,12,09,00,-3.80
2017,01,12,09,01,-3.80
2017,01,12,09,02,-3.80
2017,01,12,09,03,-3.70
2017,01,12,09,04,-3.50
2017,01,12,09,05,-3.30
2017,01,12,09,06,-3.10
2017,01,12,09,07,-3.00
2017,01,12,09,08,-2.90
2017,01,12,09,09,-2.90
2017,01,12,09,10,-2.90
2017,01,12,09,11,-2.90
2017,01,12,09,12,-3.00
2017,01,12,09,13,-3.00
2017,01,12,09,14,-3.00
2017,01,12,09,15,-3.00
2017,01,12,09,16,-3.10
2017,01,12,09,17,-3.00
2017,01,12,09,18,-2.90
2017,01,12,09,19,-2.80
2017,01,12,09,20,-2.60
2017,01,12,09,21,-2.40
2017,01,12,09,22,-2.20
2017,01,12,09,23,-2.00
2017,01,12,09,24,-1.90
2017,01,12,09,25,-1.70
2017,01,12,09,26,-1.60
2017,01,12,09,27,-1.40
2017,01,12,09,28,-1.30
2017,01,12,09,29,-1.20
2017,01,12,09,30,-1.10
2017,01,12,09,31,-1.10
2017,01,12,09,32,-1.00
2017,01,12,09,33,-0.90
2017,01,12,09,34,-0.80
2017,01,12,09,35,-0.80
2017,01,12,09,36,-0.60
2017,01,12,09,37,-0.40
2017,01,12,09,38,-0.20
2017,01,12,09,39,0.00
2017,01,12,09,40,0.20
2017,01,12,09,41,0.40
2017,01,12,09,42,0.60
2017,01,12,09,43,0.70
2017,01,12,09,44,0.90
2017,01,12,09,45,1.00
2017,01,12,09,46,1.20
2017,01,12,09,47,1.40
2017,01,12,09,48,1.60
2017,01,12,09,49,1.80
2017,01,12,09,50,1.90
2017,01,12,09,51,2.00
2017,01,12,09,52,2.00
2017,01,12,09,53,2.10
2017,01,12,09,54,2.10
2017,01,12,09,55,2.00
2017,01,12,09,56,2.10
2017,01,12,09,57,2.10
2017,01,12,09,58,2.00
2017,01,12,09,59,1.90
2017,01,12,10,00,1.80
2017,01,12,10,01,1.70
2017,01,12,10,02,1.60
2017,01,12,10,03,1.50
2017,01,12,10,04,1.50
2017,01,12,10,05,1.60
2017,01,12,10,06,1.60
2017,01,12,10,07,1.70
2017,01,12,10,08,1.80
2017,01,12,10,09,1.90
2017,01,12,10,10,2.10
2017,01,12,10,11,2.20
2017,01,12,10,12,2.30
2017,01,12,10,13,2.30
2017,01,12,10,14,2.30
2017,01,12,10,15,2.30
2017,01,12,10,16,2.30
2017,01,12,10,17,2.30
2017,01,12,10,18,2.20
2017,01,12,10,19,2.00
2017,01,12,10,20,2.00
2017,01,12,10,21,1.90
2017,01,12,10,22,1.90
2017,01,12,10,23,1.90
2017,01,12,10,24,1.90
2017,01,12,10,25,2.00
2017,01,12,10,26,1.90
2017,01,12,10,27,1.90
2017,01,12,10,28,1.90
2017,01,12,10,29,2.00
2017,01,12,10,30,2.20
2017,01,12,10,31,2.30
2017,01,12,10,32,2.30
2017,01,12,10,33,2.30
2017,01,12,10,34,2.30
2017,01,12,10,35,2.30
2017,01,12,10,36,2.20
2017,01,12,10,37,2.10
2017,01,12,10,38,2.10
2017,01,12,10,39,2.10
2017,01,12,10,40,2.10
2017,01,12,10,41,2.00
2017,01,12,10,42,1.90
2017,01,12,10,43,1.90
2017,01,12,10,44,1.80
2017,01,12,10,45,1.80
2017,01,12,10,46,1.70
2017,01,12,10,47,1.70
2017,01,12,10,48,1.60
2017,01,12,10,49,1.60
2017,01,12,10,50,1.60
2017,01,12,10,51,1.60
2017,01,12,10,52,1.70
2017,01,12,10,53,1.70
2017,01,12,10,54,1.80
2017,01,12,10,55,1.80
2017,01,12,10,56,1.80
2017,01,12,10,57,1.80
2017,01,12,10,58,1.80
2017,01,12,10,59,1.80
2017,01,12,11,00,1.80
2017,01,12,11,01,1.80
2017,01,12,11,02,1.80
2017,01,12,11,03,1.80
2017,01,12,11,04,1.80
2017,01,12,11,05,1.80
2017,01,12,11,06,1.80
2017,01,12,11,07,1.80
2017,01,12,11,08,1.80
2017,01,12,11,09,1.80
2017,01,12,11,10,1.80
2017,01,12,11,11,1.70
2017,01,12,11,12,1.70
2017,01,12,11,13,1.60
2017,01,12,11,14,1.50
2017,01,12,11,15,1.40
2017,01,12,11,16,1.40
2017,01,12,11,17,1.40
2017,01,12,11,18,1.40
2017,01,12,11,19,1.40
2017,01,12,11,20,1.40
2017,01,12,11,21,1.40
2017,01,12,11,22,1.40
2017,01,12,11,23,1.50
2017,01,12,11,24,1.70
2017,01,12,11,25,1.80
2017,01,12,11,26,1.80
2017,01,12,11,27,1.80
2017,01,12,11,28,1.90
2017,01,12,11,29,1.80
2017,01,12,11,30,1.80
2017,01,12,11,31,1.80
2017,01,12,11,32,1.70
2017,01,12,11,33,1.70
2017,01,12,11,34,1.70
2017,01,12,11,35,1.70
2017,01,12,11,36,1.70
2017,01,12,11,37,1.70
2017,01,12,11,38,1.70
2017,01,12,11,39,1.80
2017,01,12,11,40,1.80
2017,01,12,11,41,1.90
2017,01,12,11,42,1.90
2017,01,12,11,43,1.90
2017,01,12,11,44,1.80
2017,01,12,11,45,1.80
2017,01,12,11,46,1.80
2017,01,12,11,47,1.80
2017,01,12,11,48,1.80
2017,01,12,11,49,1.80
2017,01,12,11,50,1.80
2017,01,12,11,51,1.80
2017,01,12,11,52,1.80
2017,01,12,11,53,1.80
2017,01,12,11,54,1.80
2017,01,12,11,55,1.80
2017,01,12,11,56,1.70
2017,01,12,11,57,1.70
2017,01,12,11,58,1.70
2017,01,12,11,59,1.70
2017,01,12,12,00,1.70
2017,01,12,12,01,1.70
2017,01,12,12,02,1.70
2017,01,12,12,03,1.70
2017,01,12,12,04,1.60
2017,01,12,12,05,1.60
2017,01,12,12,06,1.60
2017,01,12,12,07,1.60
2017,01,12,12,08,1.60
2017,01,12,12,09,1.70
2017,01,12,12,10,1.70
2017,01,12,12,11,1.70
2017,01,12,12,12,1.70
2017,01,12,12,13,1.70
2017,01,12,12,14,1.70
2017,01,12,12,15,1.70
2017,01,12,12,16,1.70
2017,01,12,12,17,1.70
2017,01,12,12,18,1.70
2017,01,12,12,19,1.70
2017,01,12,12,20,1.70
2017,01,12,12,21,1.80
2017,01,12,12,22,1.80
2017,01,12,12,23,1.80
2017,01,12,12,24,1.80
2017,01,12,12,25,1.80
2017,01,12,12,26,1.80
2017,01,12,12,27,1.80
2017,01,12,12,28,1.80
2017,01,12,12,29,1.80
2017,01,12,12,30,1.80
2017,01,12,12,31,1.90
2017,01,12,12,32,2.00
2017,01,12,12,33,2.10
2017,01,12,12,34,2.10
2017,01,12,12,35,2.10
2017,01,12,12,36,2.10
2017,01,12,12,37,2.20
2017,01,12,12,38,2.20
2017,01,12,12,39,2.20
2017,01,12,12,40,2.20
2017,01,12,12,41,2.10
2017,01,12,12,42,2.10
2017,01,12,12,43,2.10
2017,01,12,12,44,2.00
2017,01,12,12,45,1.90
2017,01,12,12,46,1.90
2017,01,12,12,47,1.90
2017,01,12,12,48,1.90
2017,01,12,12,49,1.90
2017,01,12,12,50,2.00
2017,01,12,12,51,2.00
2017,01,12,12,52,2.10
2017,01,12,12,53,2.10
2017,01,12,12,54,2.00
2017,01,12,12,55,2.10
2017,01,12,12,56,2.10
2017,01,12,12,57,2.10
2017,01,12,12,58,2.10
2017,01,12,12,59,2.10
2017,01,12,13,00,2.10
2017,01,12,13,01,2.10
2017,01,12,13,02,2.00
2017,01,12,13,03,2.00
2017,01,12,13,04,1.90
2017,01,12,13,05,1.90
2017,01,12,13,06,1.90
2017,01,12,13,07,2.00
2017,01,12,13,08,2.00
2017,01,12,13,09,2.10
2017,01,12,13,10,2.20
2017,01,12,13,11,2.30
2017,01,12,13,12,2.50
2017,01,12,13,13,2.60
2017,01,12,13,14,2.60
2017,01,12,13,15,2.60
2017,01,12,13,16,2.60
2017,01,12,13,17,2.60
2017,01,12,13,18,2.50
2017,01,12,13,19,2.50
2017,01,12,13,20,2.40
2017,01,12,13,21,2.40
2017,01,12,13,22,2.40
2017,01,12,13,23,2.40
2017,01,12,13,24,2.30
2017,01,12,13,25,2.30
2017,01,12,13,26,2.30
2017,01,12,13,27,2.30
2017,01,12,13,28,2.30
2017,01,12,13,29,2.30
2017,01,12,13,30,2.20
2017,01,12,13,31,2.20
2017,01,12,13,32,2.20
2017,01,12,13,33,2.20
2017,01,12,13,34,2.10
2017,01,12,13,35,2.10
2017,01,12,13,36,2.10
2017,01,12,13,37,2.20
2017,01,12,13,38,2.20
2017,01,12,13,39,2.20
2017,01,12,13,40,2.30
2017,01,12,13,41,2.30
2017,01,12,13,42,2.30
2017,01,12,13,43,2.30
2017,01,12,13,44,2.40
2017,01,12,13,45,2.40
2017,01,12,13,46,2.30
2017,01,12,13,47,2.30
2017,01,12,13,48,2.30
2017,01,12,13,49,2.40
2017,01,12,13,50,2.40
2017,01,12,13,51,2.40
2017,01,12,13,52,2.50
2017,01,12,13,53,2.40
2017,01,12,13,54,2.40
2017,01,12,13,55,2.40
2017,01,12,13,56,2.40
2017,01,12,13,57,2.40
2017,01,12,13,58,2.40
2017,01,12,13,59,2.30
2017,01,12,14,00,2.30
2017,01,12,14,01,2.30
2017,01,12,14,02,2.30
2017,01,12,14,03,2.40
2017,01,12,14,04,2.40
2017,01,12,14,05,2.40
2017,01,12,14,06,2.50
2017,01,12,14,07,2.50
2017,01,12,14,08,2.60
2017,01,12,14,09,2.60
2017,01,12,14,10,2.60
2017,01,12,14,11,2.50
2017,01,12,14,12,2.50
2017,01,12,14,13,2.50
2017,01,12,14,14,2.50
2017,01,12,14,15,2.50
2017,01,12,14,16,2.50
2017,01,12,14,17,2.50
2017,01,12,14,18,2.60
2017,01,12,14,19,2.60
2017,01,12,14,20,2.60
2017,01,12,14,21,2.60
2017,01,12,14,22,2.60
2017,01,12,14,23,2.60
2017,01,12,14,24,2.50
2017,01,12,14,25,2.50
2017,01,12,14,26,2.50
2017,01,12,14,27,2.40
2017,01,12,14,28,2.50
2017,01,12,14,29,2.50
2017,01,12,14,30,2.50
2017,01,12,14,31,2.50
2017,01,12,14,32,2.50
2017,01,12,14,33,2.40
2017,01,12,14,34,2.40
2017,01,12,14,35,2.30
2017,01,12,14,36,2.30
2017,01,12,14,37,2.40
2017,01,12,14,38,2.40
2017,01,12,14,39,2.40
2017,01,12,14,40,2.40
2017,01,12,14,41,2.30
2017,01,12,14,42,2.30
2017,01,12,14,43,2.30
2017,01,12,14,44,2.30
2017,01,12,14,45,2.30
2017,01,12,14,46,2.20
2017,01,12,14,47,2.20
2017,01,12,14,48,2.20
2017,01,12,14,49,2.20
2017,01,12,14,50,2.20
2017,01,12,14,51,2.20
2017,01,12,14,52,2.10
2017,01,12,14,53,2.10
2017,01,12,14,54,2.10
2017,01,12,14,55,2.10
2017,01,12,14,56,2.10
2017,01,12,14,57,2.20
2017,01,12,14,58,2.20
2017,01,12,14,59,2.20
2017,01,12,15,00,2.20
2017,01,12,15,01,2.20
2017,01,12,15,02,2.30
2017,01,12,15,03,2.40
2017,01,12,15,04,2.50
2017,01,12,15,05,2.50
2017,01,12,15,06,2.50
2017,01,12,15,07,2.50
2017,01,12,15,08,2.40
2017,01,12,15,09,2.30
2017,01,12,15,10,2.30
2017,01,12,15,11,2.30
2017,01,12,15,12,2.30
2017,01,12,15,13,2.30
2017,01,12,15,14,2.30
2017,01,12,15,15,2.30
2017,01,12,15,16,2.20
2017,01,12,15,17,2.20
2017,01,12,15,18,2.20
2017,01,12,15,19,2.20
2017,01,12,15,20,2.30
2017,01,12,15,21,2.30
2017,01,12,15,22,2.40
2017,01,12,15,23,2.40
2017,01,12,15,24,2.50
2017,01,12,15,25,2.60
2017,01,12,15,26,2.60
2017,01,12,15,27,2.60
2017,01,12,15,28,2.60
2017,01,12,15,29,2.60
2017,01,12,15,30,2.50
2017,01,12,15,31,2.50
2017,01,12,15,32,2.50
2017,01,12,15,33,2.40
2017,01,12,15,34,2.40
2017,01,12,15,35,2.40
2017,01,12,15,36,2.30
2017,01,12,15,37,2.30
2017,01,12,15,38,2.30
2017,01,12,15,39,2.30
2017,01,12,15,40,2.30
2017,01,12,15,41,2.30
2017,01,12,15,42,2.30
2017,01,12,15,43,2.30
2017,01,12,15,44,2.30
2017,01,12,15,45,2.30
2017,01,12,15,46,2.30
2017,01,12,15,47,2.30
2017,01,12,15,48,2.30
2017,01,12,15,49,2.30
2017,01,12,15,50,2.30
2017,01,12,15,51,2.30
2017,01,12,15,52,2.30
2017,01,12,15,53,2.30
2017,01,12,15,54,2.30
2017,01,12,15,55,2.30
2017,01,12,15,56,2.30
2017,01,12,15,57,2.30
2017,01,12,15,58,2.20
2017,01,12,15,59,2.20
2017,01,12,16,00,2.20
2017,01,12,16,01,2.10
2017,01,12,16,02,2.10
2017,01,12,16,03,2.10
2017,01,12,16,04,2.00
2017,01,12,16,05,2.00
2017,01,12,16,06,2.00
2017,01,12,16,07,2.00
2017,01,12,16,08,1.90
2017,01,12,16,09,1.90
2017,01,12,16,10,1.90
2017,01,12,16,11,2.00
2017,01,12,16,12,2.00
2017,01,12,16,13,2.00
2017,01,12,16,14,2.00
2017,01,12,16,15,2.00
2017,01,12,16,16,2.00
2017,01,12,16,17,2.00
2017,01,12,16,18,1.90
2017,01,12,16,19,1.90
2017,01,12,16,20,1.90
2017,01,12,16,21,1.90
2017,01,12,16,22,1.80
2017,01,12,16,23,1.80
2017,01,12,16,24,1.80
2017,01,12,16,25,1.70
2017,01,12,16,26,1.70
2017,01,12,16,27,1.70
2017,01,12,16,28,1.70
2017,01,12,16,29,1.60
2017,01,12,16,30,1.60
2017,01,12,16,31,1.60
2017,01,12,16,32,1.50
2017,01,12,16,33,1.50
2017,01,12,16,34,1.40
2017,01,12,16,35,1.40
2017,01,12,16,36,1.30
2017,01,12,16,37,1.30
2017,01,12,16,38,1.20
2017,01,12,16,39,1.20
2017,01,12,16,40,1.20
2017,01,12,16,41,1.10
2017,01,12,16,42,1.10
2017,01,12,16,43,1.10
2017,01,12,16,44,1.10
2017,01,12,16,45,1.00
2017,01,12,16,46,1.00
2017,01,12,16,47,1.00
2017,01,12,16,48,0.90
2017,01,12,16,49,0.90
2017,01,12,16,50,0.90
2017,01,12,16,51,0.80
2017,01,12,16,52,0.80
2017,01,12,16,53,0.80
2017,01,12,16,54,0.70
2017,01,12,16,55,0.70
2017,01,12,16,56,0.70
2017,01,12,16,57,0.60
2017,01,12,16,58,0.60
2017,01,12,16,59,0.60
2017,01,12,17,00,0.60
2017,01,12,17,01,0.50
2017,01,12,17,02,0.50
2017,01,12,17,03,0.50
2017,01,12,17,04,0.40
2017,01,12,17,05,0.40
2017,01,12,17,06,0.40
2017,01,12,17,07,0.40
2017,01,12,17,08,0.30
2017,01,12,17,09,0.30
2017,01,12,17,10,0.30
2017,01,12,17,11,0.30
2017,01,12,17,12,0.20
2017,01,12,17,13,0.20
2017,01,12,17,14,0.20
2017,01,12,17,15,0.10
2017,01,12,17,16,0.10
2017,01,12,17,17,0.10
2017,01,12,17,18,0.00
2017,01,12,17,19,0.00
2017,01,12,17,20,0.00
2017,01,12,17,21,-0.10
2017,01,12,17,22,-0.10
2017,01,12,17,23,-0.10
2017,01,12,17,24,-0.20
2017,01,12,17,25,-0.20
2017,01,12,17,26,-0.20
2017,01,12,17,27,-0.20
2017,01,12,17,28,-0.30
2017,01,12,17,29,-0.30
2017,01,12,17,30,-0.30
2017,01,12,17,31,-0.40
2017,01,12,17,32,-0.40
2017,01,12,17,33,-0.40
2017,01,12,17,34,-0.40
2017,01,12,17,35,-0.50
2017,01,12,17,36,-0.50
2017,01,12,17,37,-0.50
2017,01,12,17,38,-0.50
2017,01,12,17,39,-0.60
2017,01,12,17,40,-0.60
2017,01,12,17,41,-0.60
2017,01,12,17,42,-0.60
2017,01,12,17,43,-0.60
2017,01,12,17,44,-0.70
2017,01,12,17,45,-0.70
2017,01,12,17,46,-0.70
2017,01,12,17,47,-0.70
2017,01,12,17,48,-0.70
2017,01,12,17,49,-0.80
2017,01,12,17,50,-0.80
2017,01,12,17,51,-0.80
2017,01,12,17,52,-0.80
2017,01,12,17,53,-0.90
2017,01,12,17,54,-0.90
2017,01,12,17,55,-0.90
2017,01,12,17,56,-1.00
2017,01,12,17,57,-1.00
2017,01,12,17,58,-1.00
2017,01,12,17,59,-1.10
2017,01,12,18,00,-1.10
2017,01,12,18,01,-1.10
2017,01,12,18,02,-1.10
2017,01,12,18,03,-1.20
2017,01,12,18,04,-1.20
2017,01,12,18,05,-1.20
2017,01,12,18,06,-1.20
2017,01,12,18,07,-1.20
2017,01,12,18,08,-1.30
2017,01,12,18,09,-1.30
2017,01,12,18,10,-1.30
2017,01,12,18,11,-1.30
2017,01,12,18,12,-1.30
2017,01,12,18,13,-1.40
2017,01,12,18,14,-1.40
2017,01,12,18,15,-1.40
2017,01,12,18,16,-1.40
2017,01,12,18,17,-1.50
2017,01,12,18,18,-1.50
2017,01,12,18,19,-1.60
2017,01,12,18,20,-1.60
2017,01,12,18,21,-1.60
2017,01,12,18,22,-1.70
2017,01,12,18,23,-1.70
2017,01,12,18,24,-1.70
2017,01,12,18,25,-1.80
2017,01,12,18,26,-1.80
2017,01,12,18,27,-1.80
2017,01,12,18,28,-1.80
2017,01,12,18,29,-1.90
2017,01,12,18,30,-1.90
2017,01,12,18,31,-1.90
2017,01,12,18,32,-1.90
2017,01,12,18,33,-1.90
2017,01,12,18,34,-1.90
2017,01,12,18,35,-1.90
2017,01,12,18,36,-1.90
2017,01,12,18,37,-1.90
2017,01,12,18,38,-1.90
2017,01,12,18,39,-1.90
2017,01,12,18,40,-1.90
2017,01,12,18,41,-1.90
2017,01,12,18,42,-1.90
2017,01,12,18,43,-1.90
2017,01,12,18,44,-1.90
2017,01,12,18,45,-1.90
2017,01,12,18,46,-1.90
2017,01,12,18,47,-1.90
2017,01,12,18,48,-1.90
2017,01,12,18,49,-1.90
2017,01,12,18,50,-2.00
2017,01,12,18,51,-2.00
2017,01,12,18,52,-2.00
2017,01,12,18,53,-2.00
2017,01,12,18,54,-2.00
2017,01,12,18,55,-2.00
2017,01,12,18,56,-2.00
2017,01,12,18,57,-2.00
2017,01,12,18,58,-2.00
2017,01,12,18,59,-2.00
2017,01,12,19,00,-2.00
2017,01,12,19,01,-2.00
2017,01,12,19,02,-2.00
2017,01,12,19,03,-2.10
2017,01,12,19,04,-2.10
2017,01,12,19,05,-2.10
2017,01,12,19,06,-2.20
2017,01,12,19,07,-2.20
2017,01,12,19,08,-2.20
2017,01,12,19,09,-2.30
2017,01,12,19,10,-2.30
2017,01,12,19,11,-2.30
2017,01,12,19,12,-2.40
2017,01,12,19,13,-2.40
2017,01,12,19,14,-2.40
2017,01,12,19,15,-2.50
2017,01,12,19,16,-2.50
2017,01,12,19,17,-2.50
2017,01,12,19,18,-2.50
2017,01,12,19,19,-2.50
2017,01,12,19,20,-2.60
2017,01,12,19,21,-2.60
2017,01,12,19,22,-2.60
2017,01,12,19,23,-2.60
2017,01,12,19,24,-2.60
2017,01,12,19,25,-2.60
2017,01,12,19,26,-2.60
2017,01,12,19,27,-2.60
2017,01,12,19,28,-2.60
2017,01,12,19,29,-2.60
2017,01,12,19,30,-2.60
2017,01,12,19,31,-2.60
2017,01,12,19,32,-2.60
2017,01,12,19,33,-2.70
2017,01,12,19,34,-2.70
2017,01,12,19,35,-2.70
2017,01,12,19,36,-2.70